Time,TemperatureF,DewpointF,PressureIn,WindDirection,WindDirectionDegrees,WindSpeedMPH,WindSpeedGustMPH,Humidity,HourlyPrecipIn,Conditions,Clouds,dailyrainin,SoftwareType,DateUTC
2013-10-07 00:00:00,57.4,55.1,30.20,SE,128,6.0,7.0,92,0.00,CLR,,0.00,WeatherDisplay:10.37,2013-10-06 23:00:00,
2013-10-07 00:15:00,57.4,55.1,30.19,SE,128,5.0,10.0,92,0.00,CLR,,0.00,WeatherDisplay:10.37,2013-10-06 23:15:00,
2013-10-07 00:30:00,57.4,55.4,30.19,SE,140,3.0,8.0,93,0.00,CLR,,0.00,WeatherDisplay:10.37,2013-10-06 23:30:00,
2013-10-07 00:45:00,57.6,55.6,30.19,SSE,147,2.0,6.0,93,0.00,CLR,,0.00,WeatherDisplay:10.37,2013-10-06 23:45:00,
2013-10-07 01:00:00,57.7,55.7,30.19,SE,133,3.0,7.0,93,0.00,CLR,,0.00,WeatherDisplay:10.37,2013-10-07 00:00:00,
2013-10-07 01:15:00,57.9,56.2,30.19,SE,133,3.0,7.0,94,0.00,CLR,,0.00,WeatherDisplay:10.37,2013-10-07 00:15:00,
2013-10-07 01:30:00,57.9,56.2,30.19,SE,136,5.0,7.0,94,0.00,CLR,,0.00,WeatherDisplay:10.37,2013-10-07 00:30:00,
2013-10-07 01:45:00,57.9,56.2,30.18,SE,127,3.0,8.0,94,0.00,CLR,,0.00,WeatherDisplay:10.37,2013-10-07 00:45:00,
2013-10-07 02:00:00,58.1,56.4,30.18,SE,139,3.0,7.0,94,0.00,CLR,,0.00,WeatherDisplay:10.37,2013-10-07 01:00:00,
2013-10-07 02:15:00,58.3,56.6,30.18,SE,133,5.0,9.0,94,0.00,OVC,,0.00,WeatherDisplay:10.37,2013-10-07 01:15:00,
2013-10-07 02:30:00,58.6,56.9,30.18,SE,135,3.0,8.0,94,0.00,OVC,,0.00,WeatherDisplay:10.37,2013-10-07 01:30:00,
2013-10-07 02:45:00,58.8,57.4,30.17,SE,143,2.0,6.0,95,0.00,OVC,,0.00,WeatherDisplay:10.37,2013-10-07 01:45:00,
2013-10-07 03:00:00,58.8,57.4,30.17,SE,135,3.0,10.0,95,0.00,OVC,,0.00,WeatherDisplay:10.37,2013-10-07 02:00:00,
2013-10-07 03:15:00,58.8,57.4,30.17,SE,146,2.0,6.0,95,0.00,OVC,,0.00,WeatherDisplay:10.37,2013-10-07 02:15:00,
2013-10-07 03:30:00,58.8,57.4,30.17,SE,137,3.0,9.0,95,0.00,OVC,,0.00,WeatherDisplay:10.37,2013-10-07 02:30:00,
2013-10-07 03:45:00,58.8,57.4,30.17,SE,130,3.0,6.0,95,0.00,OVC,,0.00,WeatherDisplay:10.37,2013-10-07 02:45:00,
2013-10-07 04:00:00,58.8,57.4,30.17,SSE,154,1.0,6.0,95,0.00,OVC,,0.00,WeatherDisplay:10.37,2013-10-07 03:00:00,
2013-10-07 04:15:00,58.8,57.4,30.16,SE,137,1.0,4.0,95,0.00,CLR,,0.00,WeatherDisplay:10.37,2013-10-07 03:15:00,
2013-10-07 04:30:00,58.8,57.7,30.16,SE,139,1.0,4.0,96,0.00,CLR,,0.00,WeatherDisplay:10.37,2013-10-07 03:30:00,
2013-10-07 04:45:00,59.1,58.0,30.16,SSE,152,2.0,5.0,96,0.00,CLR,,0.00,WeatherDisplay:10.37,2013-10-07 03:45:00,
2013-10-07 05:00:00,59.4,58.2,30.16,SSW,196,0.0,4.0,96,0.00,CLR,,0.00,WeatherDisplay:10.37,2013-10-07 04:00:00,
2013-10-07 05:15:00,59.5,58.4,30.16,SSE,161,1.0,5.0,96,0.00,-DZ,,0.00,WeatherDisplay:10.37,2013-10-07 04:15:00,
2013-10-07 05:30:00,59.5,58.4,30.16,SSE,148,1.0,5.0,96,0.00,-DZ,,0.00,WeatherDisplay:10.37,2013-10-07 04:30:00,
2013-10-07 05:45:00,59.7,58.6,30.17,SE,137,2.0,6.0,96,0.00,-DZ,,0.00,WeatherDisplay:10.37,2013-10-07 04:45:00,
2013-10-07 06:00:00,59.9,58.8,30.16,SE,138,3.0,6.0,96,0.00,-DZ,,0.00,WeatherDisplay:10.37,2013-10-07 05:00:00,
2013-10-07 06:15:00,60.1,58.9,30.16,SSE,148,0.0,4.0,96,0.00,OVC,,0.00,WeatherDisplay:10.37,2013-10-07 05:15:00,
2013-10-07 06:30:00,60.1,58.9,30.16,SE,145,0.0,2.0,96,0.00,OVC,,0.00,WeatherDisplay:10.37,2013-10-07 05:30:00,
2013-10-07 06:45:00,60.1,58.9,30.16,SSE,163,1.0,5.0,96,0.00,OVC,,0.00,WeatherDisplay:10.37,2013-10-07 05:45:00,
2013-10-07 07:00:00,60.1,58.9,30.17,SW,214,0.0,4.0,96,0.00,OVC,,0.00,WeatherDisplay:10.37,2013-10-07 06:00:00,
2013-10-07 07:15:00,60.1,58.9,30.17,SW,231,0.0,1.0,96,0.02,RA,,0.02,WeatherDisplay:10.37,2013-10-07 06:15:00,
2013-10-07 07:30:00,60.1,58.9,30.17,SW,216,1.0,4.0,96,0.02,BKN,,0.02,WeatherDisplay:10.37,2013-10-07 06:30:00,
2013-10-07 07:45:00,59.8,58.7,30.17,SSW,199,1.0,3.0,96,0.02,BKN,,0.02,WeatherDisplay:10.37,2013-10-07 06:45:00,
2013-10-07 08:00:00,59.5,58.4,30.17,South,186,1.0,4.0,96,0.02,BKN,,0.02,WeatherDisplay:10.37,2013-10-07 07:00:00,
2013-10-07 08:15:00,59.2,58.0,30.18,SSW,198,0.0,3.0,96,0.00,BKN,,0.02,WeatherDisplay:10.37,2013-10-07 07:15:00,
2013-10-07 08:30:00,59.0,57.9,30.18,South,185,1.0,3.0,96,0.00,BKN,,0.02,WeatherDisplay:10.37,2013-10-07 07:30:00,
2013-10-07 08:45:00,59.5,58.4,30.18,South,169,2.0,5.0,96,0.00,BKN,,0.02,WeatherDisplay:10.37,2013-10-07 07:45:00,
2013-10-07 09:00:00,59.9,58.7,30.18,SSW,198,1.0,4.0,96,0.00,BKN,,0.02,WeatherDisplay:10.37,2013-10-07 08:00:00,
2013-10-07 09:15:00,60.1,59.0,30.18,SW,219,2.0,6.0,96,0.00,BKN,,0.02,WeatherDisplay:10.37,2013-10-07 08:15:00,
2013-10-07 09:30:00,60.6,59.5,30.19,SW,226,2.0,5.0,96,0.00,BKN,,0.02,WeatherDisplay:10.37,2013-10-07 08:30:00,
2013-10-07 09:45:00,60.9,59.8,30.18,SW,232,3.0,5.0,96,0.00,BKN,,0.02,WeatherDisplay:10.37,2013-10-07 08:45:00,
2013-10-07 10:00:00,61.2,60.0,30.18,SW,215,2.0,6.0,96,0.00,BKN,,0.02,WeatherDisplay:10.37,2013-10-07 09:00:00,
2013-10-07 10:15:00,61.5,60.4,30.18,SSW,210,2.0,6.0,96,0.00,-DZ,,0.02,WeatherDisplay:10.37,2013-10-07 09:15:00,
2013-10-07 10:30:00,62.1,61.0,30.18,SW,222,3.0,8.0,96,0.00,-DZ,,0.02,WeatherDisplay:10.37,2013-10-07 09:30:00,
2013-10-07 10:45:00,62.8,61.6,30.18,SW,221,3.0,8.0,96,0.00,-DZ,,0.02,WeatherDisplay:10.37,2013-10-07 09:45:00,
2013-10-07 11:00:00,63.3,62.5,30.17,SW,233,5.0,8.0,97,0.00,-DZ,,0.02,WeatherDisplay:10.37,2013-10-07 10:00:00,
2013-10-07 11:15:00,63.7,62.5,30.18,SW,233,2.0,8.0,96,0.00,-DZ,,0.02,WeatherDisplay:10.37,2013-10-07 10:15:00,
2013-10-07 11:30:00,63.7,62.5,30.18,WSW,244,2.0,9.0,96,0.00,-DZ,,0.02,WeatherDisplay:10.37,2013-10-07 10:30:00,
2013-10-07 11:45:00,64.2,63.1,30.18,SW,221,5.0,9.0,96,0.00,-DZ,,0.02,WeatherDisplay:10.37,2013-10-07 10:45:00,
2013-10-07 12:00:00,64.8,63.3,30.18,SW,227,5.0,8.0,95,0.00,-DZ,,0.02,WeatherDisplay:10.37,2013-10-07 11:00:00,
2013-10-07 12:15:00,65.1,63.6,30.18,West,264,5.0,8.0,95,0.00,-DZ,,0.02,WeatherDisplay:10.37,2013-10-07 11:15:00,
2013-10-07 12:30:00,65.1,63.0,30.17,WSW,241,6.0,8.0,93,0.00,-DZ,,0.02,WeatherDisplay:10.37,2013-10-07 11:30:00,
2013-10-07 12:45:00,65.5,63.1,30.18,WSW,247,3.0,10.0,92,0.00,-DZ,,0.02,WeatherDisplay:10.37,2013-10-07 11:45:00,
2013-10-07 13:00:00,65.5,62.8,30.17,West,276,3.0,9.0,91,0.00,-DZ,,0.02,WeatherDisplay:10.37,2013-10-07 12:00:00,
2013-10-07 13:15:00,65.4,62.4,30.17,West,279,3.0,7.0,90,0.00,BKN,,0.02,WeatherDisplay:10.37,2013-10-07 12:15:00,
2013-10-07 13:30:00,65.1,61.8,30.17,West,279,2.0,9.0,89,0.00,BKN,,0.02,WeatherDisplay:10.37,2013-10-07 12:30:00,
2013-10-07 13:45:00,65.5,62.2,30.16,West,267,3.0,8.0,89,0.00,BKN,,0.02,WeatherDisplay:10.37,2013-10-07 12:45:00,
2013-10-07 14:00:00,65.7,61.7,30.16,West,276,2.0,7.0,87,0.00,BKN,,0.02,WeatherDisplay:10.37,2013-10-07 13:00:00,
2013-10-07 14:15:00,66.2,61.9,30.16,WNW,294,3.0,10.0,86,0.00,BKN,,0.02,WeatherDisplay:10.37,2013-10-07 13:15:00,
2013-10-07 14:30:00,67.3,62.6,30.16,WNW,298,5.0,13.0,85,0.00,BKN,,0.02,WeatherDisplay:10.37,2013-10-07 13:30:00,
2013-10-07 14:45:00,67.8,63.1,30.16,WNW,292,3.0,7.0,85,0.00,BKN,,0.02,WeatherDisplay:10.37,2013-10-07 13:45:00,
2013-10-07 15:00:00,68.7,63.7,30.16,West,271,6.0,9.0,84,0.00,BKN,,0.02,WeatherDisplay:10.37,2013-10-07 14:00:00,
2013-10-07 15:15:00,68.4,62.6,30.16,WNW,282,3.0,9.0,82,0.00,SCT,,0.02,WeatherDisplay:10.37,2013-10-07 14:15:00,
2013-10-07 15:30:00,68.9,63.1,30.15,WNW,288,3.0,9.0,82,0.00,SCT,,0.02,WeatherDisplay:10.37,2013-10-07 14:30:00,
2013-10-07 15:45:00,69.4,63.7,30.15,West,268,5.0,13.0,82,0.00,SCT,,0.02,WeatherDisplay:10.37,2013-10-07 14:45:00,
2013-10-07 16:00:00,69.4,63.0,30.14,West,270,5.0,13.0,80,0.00,SCT,,0.02,WeatherDisplay:10.37,2013-10-07 15:00:00,
2013-10-07 16:15:00,69.4,62.6,30.15,West,274,3.0,11.0,79,0.00,SCT,,0.02,WeatherDisplay:10.37,2013-10-07 15:15:00,
2013-10-07 16:30:00,69.3,62.1,30.16,West,269,6.0,11.0,78,0.00,SCT,,0.02,WeatherDisplay:10.37,2013-10-07 15:30:00,
2013-10-07 16:45:00,68.2,61.1,30.15,West,276,2.0,10.0,78,0.00,SCT,,0.02,WeatherDisplay:10.37,2013-10-07 15:45:00,
2013-10-07 17:00:00,67.6,60.9,30.16,WSW,242,5.0,12.0,79,0.00,SCT,,0.02,WeatherDisplay:10.37,2013-10-07 16:00:00,
2013-10-07 17:15:00,66.6,60.2,30.16,WSW,244,6.0,12.0,80,0.00,BKN,,0.02,WeatherDisplay:10.37,2013-10-07 16:15:00,
2013-10-07 17:30:00,65.7,59.7,30.16,WSW,240,5.0,10.0,81,0.00,BKN,,0.02,WeatherDisplay:10.37,2013-10-07 16:30:00,
2013-10-07 17:45:00,65.1,59.4,30.17,WSW,237,6.0,9.0,82,0.00,BKN,,0.02,WeatherDisplay:10.37,2013-10-07 16:45:00,
2013-10-07 18:00:00,64.6,59.3,30.17,WSW,239,5.0,8.0,83,0.00,BKN,,0.02,WeatherDisplay:10.37,2013-10-07 17:00:00,
2013-10-07 18:15:00,64.2,58.9,30.17,SW,231,3.0,9.0,83,0.00,BKN,,0.02,WeatherDisplay:10.37,2013-10-07 17:15:00,
2013-10-07 18:30:00,64.0,59.0,30.17,SW,234,3.0,9.0,84,0.00,BKN,,0.02,WeatherDisplay:10.37,2013-10-07 17:30:00,
2013-10-07 18:45:00,63.3,58.4,30.17,SW,217,3.0,8.0,84,0.00,BKN,,0.02,WeatherDisplay:10.37,2013-10-07 17:45:00,
2013-10-07 19:00:00,62.8,57.9,30.18,SW,231,3.0,6.0,84,0.00,BKN,,0.02,WeatherDisplay:10.37,2013-10-07 18:00:00,
2013-10-07 19:15:00,62.4,57.8,30.18,SW,216,2.0,7.0,85,0.00,BKN,,0.02,WeatherDisplay:10.37,2013-10-07 18:15:00,
2013-10-07 19:30:00,61.9,57.3,30.18,SSW,206,2.0,7.0,85,0.00,BKN,,0.02,WeatherDisplay:10.37,2013-10-07 18:30:00,
2013-10-07 19:45:00,61.5,57.2,30.19,SSW,212,2.0,5.0,86,0.00,BKN,,0.02,WeatherDisplay:10.37,2013-10-07 18:45:00,
2013-10-07 20:00:00,61.0,56.8,30.19,SSW,210,1.0,4.0,86,0.00,BKN,,0.02,WeatherDisplay:10.37,2013-10-07 19:00:00,
2013-10-07 20:15:00,60.6,56.7,30.19,SSW,196,2.0,6.0,87,0.00,BKN,,0.02,WeatherDisplay:10.37,2013-10-07 19:15:00,
2013-10-07 20:30:00,60.4,56.6,30.19,South,183,1.0,4.0,87,0.00,BKN,,0.02,WeatherDisplay:10.37,2013-10-07 19:30:00,
2013-10-07 20:45:00,60.1,56.2,30.19,SSE,164,2.0,4.0,87,0.00,BKN,,0.02,WeatherDisplay:10.37,2013-10-07 19:45:00,
2013-10-07 21:00:00,59.7,56.2,30.19,SSE,147,2.0,4.0,88,0.00,BKN,,0.02,WeatherDisplay:10.37,2013-10-07 20:00:00,
2013-10-07 21:15:00,59.5,56.3,30.18,South,169,2.0,5.0,89,0.00,BKN,,0.02,WeatherDisplay:10.37,2013-10-07 20:15:00,
2013-10-07 21:30:00,59.5,56.6,30.18,SSE,155,3.0,6.0,90,0.00,BKN,,0.02,WeatherDisplay:10.37,2013-10-07 20:30:00,
2013-10-07 21:45:00,59.2,56.2,30.17,SE,144,2.0,6.0,90,0.00,BKN,,0.02,WeatherDisplay:10.37,2013-10-07 20:45:00,
2013-10-07 22:00:00,58.8,55.9,30.18,SSE,149,2.0,6.0,90,0.00,BKN,,0.02,WeatherDisplay:10.37,2013-10-07 21:00:00,
2013-10-07 22:15:00,58.8,56.2,30.18,SE,141,1.0,4.0,91,0.00,FEW,,0.02,WeatherDisplay:10.37,2013-10-07 21:15:00,
2013-10-07 22:30:00,58.8,56.2,30.19,SSE,152,2.0,5.0,91,0.00,FEW,,0.02,WeatherDisplay:10.37,2013-10-07 21:30:00,
2013-10-07 22:45:00,58.6,56.0,30.18,South,174,1.0,5.0,91,0.00,FEW,,0.02,WeatherDisplay:10.37,2013-10-07 21:45:00,
2013-10-07 23:00:00,58.3,55.7,30.18,South,181,2.0,5.0,91,0.00,FEW,,0.02,WeatherDisplay:10.37,2013-10-07 22:00:00,
2013-10-07 23:15:00,58.1,55.8,30.19,SSW,194,3.0,7.0,92,0.00,SCT,,0.02,WeatherDisplay:10.37,2013-10-07 22:15:00,
2013-10-07 23:30:00,57.9,55.6,30.19,South,184,2.0,6.0,92,0.00,SCT,,0.02,WeatherDisplay:10.37,2013-10-07 22:30:00,
2013-10-07 23:45:00,57.9,55.6,30.19,SSE,168,1.0,5.0,92,0.00,SCT,,0.02,WeatherDisplay:10.37,2013-10-07 22:45:00,